Location: Dillon
(41.1766°N, 107.0923°W)
Time: 12:25:10
(UTC+00:00)

COSMOS 1867 COOLANT - Visible Passes

Search period start: 08 December 2022 00:00
Search period end: 18 December 2022 00:00
Orbit: 774 x 794 km, 65.0° (Epoch: 07 December)

Date Brightness Start Highest point End Pass type
(mag) Time Alt. Az. Time Alt. Az. Time Alt. Az.
08 Dec ? 12:09:52 12° N 12:13:30 22° NE 12:17:42 10° E visible
08 Dec ? 13:52:05 10° NW 13:57:29 67° WSW 14:02:49 10° SSE visible
09 Dec ? 11:38:15 14° N 11:40:23 18° NE 11:43:58 10° E visible
09 Dec ? 13:19:11 10° NNW 13:24:39 89° NE 13:30:04 10° SSE visible
10 Dec ? 11:06:42 14° NNE 11:07:12 14° NE 11:09:59 10° ENE visible
10 Dec ? 12:47:19 15° NNW 12:51:47 65° NE 12:57:08 10° SE visible
11 Dec ? 10:35:13 10° NE 10:35:13 10° NE 10:35:31 10° NE visible
11 Dec ? 12:15:50 24° N 12:18:51 48° NE 12:24:03 10° SE visible
12 Dec ? 11:44:25 30° NNE 11:45:52 36° NE 11:50:49 10° ESE visible
12 Dec ? 13:25:02 13° NW 13:29:21 36° WSW 13:34:14 10° S visible
13 Dec ? 11:13:04 27° NE 11:13:04 27° NE 11:17:25 10° ESE visible
13 Dec ? 12:53:42 25° NW 12:56:36 51° WSW 13:01:47 10° S visible
14 Dec ? 10:41:49 17° ENE 10:41:49 17° ENE 10:43:50 10° E visible
14 Dec ? 12:22:26 50° NW 12:23:48 72° WSW 12:29:10 10° SSE visible
15 Dec ? 02:58:21 10° SSW 02:58:32 11° SSW 02:58:32 11° SSW visible
15 Dec ? 11:51:15 79° ESE 11:51:15 79° ESE 11:56:22 10° SSE visible
15 Dec ? 13:31:53 11° W 13:33:42 13° WSW 13:36:13 10° SW visible
16 Dec ? 02:25:40 10° SSW 02:27:33 22° S 02:27:33 22° S visible
16 Dec ? 11:20:08 36° ESE 11:20:08 36° ESE 11:23:24 10° SE visible
16 Dec ? 13:00:46 19° WSW 13:01:04 19° WSW 13:04:49 10° SSW visible
17 Dec ? 01:53:11 10° S 01:56:33 31° SSE 01:56:33 31° SSE visible
17 Dec ? 03:36:50 10° WSW 03:37:11 12° WSW 03:37:11 12° WSW visible
17 Dec ? 10:49:04 17° ESE 10:49:04 17° ESE 10:50:17 10° SE visible
17 Dec ? 12:29:43 25° SW 12:29:43 25° SW 12:32:53 10° SSW visible
